Back to catalog

BREEZE-M DEB

LostHEO
NORAD 34241·DEBRIS·🇷🇺 Russia

Launched Feb 28, 2006 from Baikonur Cosmodrome

Loading…

Next Passes (next 24 hours)

TLE

StaleSource: Space-Track

Epoch: Jun 9, 2026, 08:56 UTC

1 34241U 06006BG  26160.37227039  .00007062  00000-0  23839-1 0  9995
2 34241  51.8136 120.5906 4900194  23.1918 151.9298  5.42042449 39386

Track BREEZE-M DEB in real time with AllMySat

Download on the App Store